DateTimeUTC,F1_A11,F1_S11,BsB_S11,BsG_S11,BsR_S11,BbsB_S11,BbsG_S11,BbsR_S11,BaB_A11,BaG_A11,BaR_A11,Tu_S11,T_S11,Uu_S11,U_S11,P_S11,T1_A11
2021-08-09T07:00:00Z,00000200,20000000,,,,,,,0000.26,0000.28,-000.56,18.5,25.3,06.2,04.1,0669.5,31.0
2021-08-09T07:01:00Z,00000200,20000000,,,,,,,0000.15,0000.18,0000.46,18.5,25.3,06.2,04.1,0669.5,31.0
2021-08-09T07:02:00Z,00000200,20000000,,,,,,,-000.28,-000.19,-000.26,18.5,25.3,06.2,04.1,0669.5,31.0
2021-08-09T07:03:00Z,00000200,60000000,,,,,,,0000.20,0000.26,0000.59,18.5,25.3,06.2,04.1,0669.5,31.0
2021-08-09T07:04:00Z,00000200,40000000,0004.08,0002.81,0001.77,0000.42,0000.21,0000.19,-000.24,-000.18,0000.24,18.6,25.1,06.4,04.3,0670.5,31.0
2021-08-09T07:05:00Z,00000200,00000000,0003.61,0002.89,0001.87,-000.02,0000.11,0000.07,-000.14,0000.09,0000.57,18.6,25.1,06.6,04.4,0670.5,31.0
2021-08-09T07:06:00Z,00000200,00000000,0003.98,0002.87,0001.87,-000.36,0000.51,-000.17,0000.09,-000.05,0000.23,18.7,25.1,06.6,04.4,0670.5,31.0
2021-08-09T07:07:00Z,00000200,00000000,0003.86,0003.03,0001.76,0000.99,0000.12,0000.40,-000.49,0000.13,0000.34,18.6,25.1,06.7,04.5,0670.5,31.0
2021-08-09T07:08:00Z,00000200,00000000,0003.21,0002.71,0001.67,0000.62,-000.01,0000.15,0000.35,-000.12,0000.41,18.6,25.0,06.7,04.5,0670.5,31.0
2021-08-09T07:09:00Z,00000200,00000000,0004.29,0002.72,0002.16,0000.30,0000.35,0000.33,-000.34,0000.09,0000.35,18.6,25.0,06.8,04.6,0670.5,31.0
2021-08-09T07:10:00Z,00000200,00000000,0003.57,0002.61,0001.75,0000.69,0000.52,0000.76,0000.18,0000.10,0000.16,18.6,25.0,06.7,04.6,0670.5,31.0
2021-08-09T07:11:00Z,00000200,00000000,0004.29,0003.13,0001.74,0000.65,0000.53,0000.18,-000.08,-000.28,0000.34,18.6,25.0,06.8,04.6,0670.4,31.0
2021-08-09T07:12:00Z,00000200,00000000,0004.38,0002.87,0001.58,0000.33,0000.32,0000.28,-000.40,-000.04,0000.03,18.6,25.0,06.8,04.6,0670.4,31.0
2021-08-09T07:13:00Z,00000200,00000000,0003.77,0003.03,0001.62,0000.31,0000.13,-000.36,-000.41,0000.04,0000.43,18.6,25.0,06.8,04.6,0670.4,31.0
2021-08-09T07:14:00Z,00000200,00000000,0004.49,0002.94,0001.78,-000.11,0000.15,0000.24,-000.14,-000.15,-000.11,18.6,25.0,06.9,04.7,0670.4,31.0
2021-08-09T07:15:00Z,00000200,00000000,0004.13,0003.01,0001.45,0000.61,0000.38,-000.13,-000.15,-000.30,0000.41,18.7,25.0,06.9,04.7,0670.4,31.0
2021-08-09T07:16:00Z,00000200,00000000,0002.84,0002.71,0002.13,0000.29,0000.32,0000.64,-000.16,0000.21,0000.17,18.6,25.0,07.0,04.7,0670.4,31.0
2021-08-09T07:17:00Z,00000200,00000000,0004.24,0002.96,0001.74,0000.70,0000.18,0000.12,-000.30,-000.04,0000.52,18.6,25.0,06.9,04.7,0670.4,31.0
2021-08-09T07:18:00Z,00000200,00000000,0003.49,0002.98,0001.85,0000.80,0000.36,0000.15,0000.12,-000.06,0000.42,18.6,25.0,06.9,04.7,0670.4,31.0
2021-08-09T07:19:00Z,00000200,00000000,0004.04,0002.61,0001.82,0000.57,0000.39,0000.21,-000.48,-000.09,-000.04,18.6,25.0,06.9,04.7,0670.4,31.0
2021-08-09T07:20:00Z,00000200,00000000,0004.45,0003.08,0001.83,0000.38,0000.06,0000.45,-000.02,-000.33,0000.16,18.6,25.0,07.0,04.7,0670.5,31.0
2021-08-09T07:21:00Z,00000200,00000000,0003.90,0003.01,0002.08,0000.27,0000.41,0000.58,-000.51,-000.47,0000.06,18.6,25.0,07.0,04.7,0670.5,31.0
2021-08-09T07:22:00Z,00000200,00000000,0004.41,0002.64,0001.81,0000.56,0000.16,0000.18,-000.03,0000.39,0000.67,18.7,25.0,07.0,04.7,0670.4,31.0
2021-08-09T07:23:00Z,00000200,00000000,0004.18,0002.92,0001.83,0000.20,0000.29,0000.32,-000.09,0000.14,0000.28,18.7,25.0,07.1,04.8,0670.4,31.0
2021-08-09T07:24:00Z,00000200,00000000,0003.78,0002.82,0001.90,0000.28,0000.12,0000.16,-000.93,-000.48,-000.12,18.7,25.0,07.0,04.8,0670.5,31.0
2021-08-09T07:25:00Z,00000200,00000000,0004.50,0002.99,0001.73,0000.39,0000.50,0000.26,0000.41,0000.09,0000.47,18.7,25.0,07.0,04.8,0670.5,31.0
2021-08-09T07:26:00Z,00000200,00000000,0003.99,0003.07,0001.37,0000.74,0000.40,0000.03,-000.40,-000.09,0000.38,18.7,25.0,07.0,04.7,0670.5,31.0
2021-08-09T07:27:00Z,00000200,00000000,0004.72,0002.77,0002.02,0000.50,0000.02,0000.55,0000.16,0000.13,0000.09,18.7,25.0,07.0,04.8,0670.4,31.0
2021-08-09T07:28:00Z,00000200,00000000,0003.81,0002.88,0002.05,0000.67,0000.02,0000.32,-000.02,-000.04,0000.59,18.7,25.0,07.1,04.8,0670.4,31.0
2021-08-09T07:29:00Z,00000200,00000000,0003.93,0002.94,0001.70,-000.12,0000.28,0000.26,-000.55,-000.10,0000.21,18.8,25.1,07.1,04.8,0670.4,31.0
2021-08-09T07:30:00Z,00000200,00000000,0003.42,0002.91,0001.82,0000.22,0000.78,0000.27,0000.17,0000.19,0000.68,18.8,25.1,07.2,04.9,0670.4,31.0
2021-08-09T07:31:00Z,00000200,00000000,0004.55,0002.60,0001.90,0000.42,0000.23,-000.01,-000.37,-000.04,0000.14,18.8,25.0,07.1,04.8,0670.4,31.0
2021-08-09T07:32:00Z,00000200,00000000,0003.95,0002.49,0001.69,0000.72,0000.33,-000.01,-000.22,0000.02,-000.02,18.8,25.0,07.1,04.8,0670.4,31.0
2021-08-09T07:33:00Z,00000200,00000000,0004.54,0002.71,0001.61,0000.82,0000.24,0000.32,0000.08,-000.18,0000.48,18.8,25.0,07.1,04.9,0670.4,31.0
2021-08-09T07:34:00Z,00000200,00000000,0002.76,0002.91,0001.55,0000.55,0000.21,0000.07,-000.18,-000.22,0000.10,18.8,25.0,07.1,04.9,0670.4,31.0
2021-08-09T07:35:00Z,00000200,00000000,0003.12,0002.45,0001.35,-000.23,-000.02,-000.04,-000.48,-000.23,-000.37,18.7,25.0,07.0,04.8,0670.4,31.0
2021-08-09T07:36:00Z,00000200,00000000,0003.38,0002.86,0001.46,0000.02,0000.51,0000.17,-000.13,-000.20,0000.51,18.7,25.0,07.1,04.9,0670.4,31.0
2021-08-09T07:37:00Z,00000200,00000000,0003.26,0002.72,0001.79,0000.01,0000.39,-000.06,-000.66,-000.29,-000.11,18.7,25.0,07.1,04.9,0670.4,31.0
2021-08-09T07:38:00Z,00000200,00000000,0003.55,0002.66,0001.70,0000.17,0000.25,0000.08,0000.25,0000.29,0000.60,18.7,25.0,07.1,04.9,0670.4,31.0
2021-08-09T07:39:00Z,00000200,00000000,0003.91,0002.23,0001.16,0000.06,0000.51,-000.04,-000.11,-000.29,0000.19,18.7,25.0,07.1,04.9,0670.4,31.0
2021-08-09T07:40:00Z,00000200,00000000,0003.03,0002.55,0001.70,0000.32,0000.33,0000.35,-000.46,0000.01,0000.31,18.7,25.0,07.1,04.9,0670.5,31.0
2021-08-09T07:41:00Z,00000200,00000000,0003.11,0002.34,0001.45,0000.71,0000.00,0000.11,0000.05,-000.23,-000.04,18.7,25.0,07.1,04.9,0670.4,31.0
2021-08-09T07:42:00Z,00000200,00000000,0002.73,0002.46,0001.01,0000.54,-000.18,0000.35,-000.38,0000.04,0000.03,18.7,25.0,07.1,04.8,0670.5,31.0
2021-08-09T07:43:00Z,00000200,00000000,0003.17,0002.31,0001.26,0000.54,0000.61,-000.03,0000.01,-000.11,0000.65,18.7,25.0,06.9,04.8,0670.5,31.0
2021-08-09T07:44:00Z,00000200,00000000,0003.48,0002.21,0001.60,0000.19,0000.21,0000.13,-000.30,-000.02,0000.10,18.7,25.0,07.1,04.9,0670.5,31.0
2021-08-09T07:45:00Z,00000200,00000000,0003.38,0002.43,0001.40,0000.40,0000.31,0000.05,-000.61,-000.41,0000.04,18.7,25.0,07.1,04.8,0670.5,31.0
2021-08-09T07:46:00Z,00000200,00000000,0003.38,0002.41,0001.20,0000.60,0000.19,-000.14,-000.16,-000.26,0000.00,18.7,25.0,07.0,04.8,0670.5,31.0
2021-08-09T07:47:00Z,00000200,00000000,0003.26,0002.53,0001.24,0000.44,0000.28,0000.01,0000.13,0000.50,0000.21,18.7,25.0,07.1,04.8,0670.5,31.0
2021-08-09T07:48:00Z,00000200,00000000,0003.44,0002.75,0001.24,0000.64,0000.17,0000.02,-000.45,-000.26,0000.07,18.7,25.0,07.1,04.8,0670.5,31.0
2021-08-09T07:49:00Z,00000200,00000000,0003.29,0002.21,0001.59,0001.13,0000.17,0000.21,0000.18,-000.03,0000.59,18.7,25.0,07.0,04.8,0670.5,31.0
2021-08-09T07:50:00Z,00000200,00000000,0002.79,0002.18,0001.10,0000.42,0000.59,0000.01,-000.18,-000.01,-000.15,18.7,25.0,07.1,04.8,0670.5,31.0
2021-08-09T07:51:00Z,00000200,00000000,0003.31,0002.37,0001.06,0000.05,0000.47,0000.23,-000.51,-000.24,0000.26,18.7,25.0,07.0,04.8,0670.5,31.0
2021-08-09T07:52:00Z,00000200,00000000,0003.15,0002.30,0001.09,0000.58,0000.22,0000.16,0000.56,0000.24,0000.63,18.7,25.0,07.0,04.8,0670.6,31.0
2021-08-09T07:53:00Z,00000200,00000000,0003.29,0002.00,0001.89,0001.13,-000.02,0000.04,-000.29,-000.24,-000.15,18.7,25.0,07.0,04.7,0670.5,31.0
2021-08-09T07:54:00Z,00000200,00000000,0003.06,0002.59,0001.79,0000.27,0000.31,0000.29,-000.44,-000.08,0000.11,18.8,25.1,07.2,04.9,0670.5,31.0
2021-08-09T07:55:00Z,00000200,00000000,0003.44,0002.22,0001.25,0000.54,0000.23,0000.26,0000.02,0000.10,0000.20,18.8,25.0,07.1,04.9,0670.5,31.0
2021-08-09T07:56:00Z,00000200,00000000,0003.58,0002.20,0001.03,0000.11,-000.01,0000.06,0000.10,0000.13,0000.61,18.8,25.0,07.1,04.9,0670.5,31.0
2021-08-09T07:57:00Z,00000200,40000000,,,,,,,-000.27,-000.33,-000.27,18.9,25.1,07.0,04.8,0670.4,31.0
2021-08-09T07:58:00Z,00000200,60000000,,,,,,,-000.18,-000.05,0000.09,18.6,25.2,07.1,04.7,0669.5,31.1
2021-08-09T07:59:00Z,00000200,20000000,,,,,,,-000.01,-000.26,-000.07,18.6,25.3,07.1,04.7,0669.5,31.0
